Home   Weather   36°05'N, 79°59'W   Past weeks
Flag for USA

Past Weather in 36°05'N, 79°59'W, USA — Yesterday and Last 2 Weeks

Now
66 °F

Clear.


Feels Like: 66 °F
Forecast: 84 / 57 °F
Wind: No wind

Location: Smith Reynolds Airport

Current Time: Sep 20, 2019 at 11:15:17 pm

Latest Report: Sep 20, 2019 at 9:54 pm


Visibility: 10 mi

Pressure: 30.27 "Hg

Humidity: 73%

Dew Point: 57 °F

Location of 36°05'N, 79°59'WLocation

Past Weather in 36°05'N, 79°59'W — Graph

°F

36°05'N, 79°59'W Temperature Yesterday

Maximum temperature yesterday: 74 °F (at 2:54 pm)
Minimum temperature yesterday: 57 °F (at 3:54 am)
Average temperature yesterday: 65 °F

High & Low Weather Summary for the Past Weeks

 TemperatureHumidityPressure
High93 °F (Sep 12, 2:54 pm)93% (Sep 10, 7:54 am)30.35 "Hg (Sep 10, 7:54 am)
Low52 °F (Sep 20, 5:54 am)30% (Sep 16, 4:54 pm)29.78 "Hg (Sep 6, 4:54 am)
Average76 °F68%30.12 "Hg
* Reported Sep 5 9:54 pm — Sep 20 9:54 pm, 36°05'N, 79°59'W. Weather by CustomWeather, © 2019

Note: Actual official high and low records may vary slightly from our data, if they occured in-between our weather recording intervals... More about our weather records

Advertising

36°05'N, 79°59'W Weather History for the Previous 24 Hours

Scroll right to see more
 ConditionsComfort  
Time TempWeatherWind HumidityBarometerVisibility
9:54 pm
Fri, Sep 20
66 °FClear.No wind73%30.27 "Hg10 mi
8:54 pm68 °FClear.No wind68%30.26 "Hg10 mi
7:54 pm71 °FClear.No wind57%30.26 "Hg10 mi
6:54 pm76 °FSunny.3 mph47%30.24 "Hg10 mi
5:54 pm78 °FSunny.No wind42%30.24 "Hg10 mi
4:54 pm79 °FSunny.No wind39%30.24 "Hg10 mi
3:54 pm77 °FSunny.5 mph42%30.25 "Hg10 mi
2:54 pm76 °FSunny.No wind43%30.27 "Hg10 mi
1:54 pm73 °FSunny.3 mph46%30.29 "Hg10 mi
12:54 pm73 °FSunny.6 mph46%30.32 "Hg10 mi
11:54 am70 °FPassing clouds.No wind51%30.33 "Hg10 mi
10:54 am67 °FSunny.No wind61%30.34 "Hg10 mi
9:54 am64 °FSunny.3 mph70%30.34 "Hg10 mi
8:54 am59 °FSunny.No wind81%30.35 "Hg10 mi
7:54 am52 °FSunny.No wind89%30.34 "Hg10 mi
6:54 am52 °FClear.No wind89%30.32 "Hg10 mi
5:54 am52 °FClear.No wind86%30.31 "Hg10 mi
4:54 am54 °FClear.3 mph83%30.30 "Hg10 mi
3:54 am53 °FClear.No wind86%30.29 "Hg10 mi
2:54 am55 °FClear.No wind80%30.29 "Hg10 mi
1:54 am55 °FClear.No wind80%30.29 "Hg10 mi
12:54 am56 °FClear.No wind77%30.29 "Hg10 mi
11:54 pm
Thu, Sep 19
60 °FClear.No wind67%30.28 "Hg10 mi
Weather by CustomWeather, © 2019

See weather overview